sat.trackr.live / text

‹ back to catalog

STARLINK-4103

NORAD 53141 · 2022-083K

PAYLOAD ACTIVE UNKNOWN

§ Identity

Operator
Country
US
Launch date
2022-07-17
Launch site
AFETR
Launch vehicle
Mass (kg)
RCS (m²)

Purposes: comms

External: N2YO · Heavens-Above · Gunter

§ Orbital elements

Epoch: 2026-05-25T03:39:37.571616Z

Period
95.44 min
Inclination
53.2121°
Eccentricity
0.0000907
Mean motion
15.08846947 rev/d
Perigee alt
539.1 km
Apogee alt
540.3 km
Semi-major
6,917.9 km
B*
2.4047e-5
RAAN
190.8672°
Arg perigee
86.3389°
Mean anomaly
273.7707°
Rev number
21,276

§ Raw data

STARLINK-41031 53141U 22083K   26145.15251819  .00000095  00000+0  24047-4 0  99932 53141  53.2121 190.8672 0000907  86.3389 273.7707 15.08846947212769

JSON: /api/v1/satellites/53141 · /tle

For live sub-satellite position, see the globe view (requires WebGL).

§ Visibility from observer

Set your observer location to see the next 7 days of passes ≥ 10°. The values pass through the URL so the page stays shareable.

No JS? Fill the form by hand. The geolocation button needs JavaScript.